Showing default

ORBCOMM FM 110, 41182

Orbit data source: Space-Track

ORBCOMM FM 110, 41182 is a payload satellite owned by Orbcomm (US) in LEO that was launched on Tue, 22 Dec 2015 UTC via an FALCON 9 launch vehicle from the Air Force Eastern Test Range (AFETR). Payload-class satellites include a variety of spacecraft equipped with specific instruments for various scientific and technological missions. These include communications satellites like Starlink; space stations such as the ISS; scientific satellites like the Hubble; Earth observation satellites from companies like Planet Labs, Umbra, and HawkEye 360; GPS; miniature CubeSats for education and research; and military/defense satellites.

Loading next visibility...
Identifier
41182, 2015-081D
Orbit
LEO
Last TLE update
18 hours ago
Origin
Manufacturer
SNC Louisville
Mission
Operational Commercial Communications
Bus & Motor
SN-100A, Unknown motor
Mass
172 kg wet, 158 kg dry
Launch date (UTC)
2015-12-22 (10 years ago)
Launch vehicle
FALCON 9
Launch site
Air Force Eastern Test Range (AFETR)
Object type
Payload
Rocket body
Debris
Shape & HBR
Box + 1 Pan + 1 Ant, 13 m
Radar Cross Section
2.222 m², Medium (>0.1 m² and < 1m²)

Expand to show TLE details & history

TLE from 18 hours ago
0 ORBCOMM FM 110
1 41182U 15081D   25182.17168642  .00000320  00000-0  10577-3 0  9992
2 41182  47.0004 220.2797 0002401 258.5822 101.4794 14.57955223506382
Epoch: 2025-07-01T04:07Z
TLE epoch observation values (Epoch: 2025-07-01T04:07:13.706Z)
Latitude
-0.00001°
Longitude
-120.99838°
Altitude
700.338 km
Speed
7.507 km/s
True Right ascension
14h 41m 07s
True Declination
0° 00' 00"
Sunlit
Object was in full shadow at epoch
Visualization orbit readout
Latitude
-46.33683°
Longitude
131.89629°
Altitude
713.228 km
Speed
7.5 km/s
Apparent Right ascension
02h 29m 42s
Apparent Declination
-75° 22' 55"
Sunlit
Object is in daylight
Visualization observer readout
Local Sidereal Time
09:25:46
Azimuth
199.205° SSW
Elevation
-41.896°
Doppler factor
1
Orbital elements
Apogee altitude
702.718 km
Perigee altitude
699.319 km
Semi-major axis
7,079.156 km
Eccentricity
0.00024
Inclination
47.0004°
RAAN
220.2797°
Arg. of periapsis
258.5822°
True anomaly
Unknown
Mean anomaly
101.4794°
Eccentric anomaly
Unknown
Mean motion
3.64394 °/min
Orbital period
98.79 mins
BSTAR
0.00010577
Loading maneuver chart data...
Loading SW <> Apogee altitude chart data...
Loading historical data...
Loading historical data...
Loading historical data...
Loading historical data...
Loading historical data...
Loading historical data...
Loading historical data...

ORBCOMM FM 110 Visibility forecast

Observer location: undefined°, undefined°

Span
Click to sort rows by Start time (UTC) header in descending order
Start Az.
Max El. time (UTC)
Max El. Az.
Max El.
End time (UTC)
End Az.
8 mins2025-07-02 04:57:27.962Z206.479° SW2025-07-02 05:01:27.962Z141.541° SSE32.496°2025-07-02 05:05:27.962Z76.108° E
8 mins2025-07-02 06:41:27.962Z263.024° W2025-07-02 06:44:27.962Z313.161° NW39.968°2025-07-02 06:49:27.962Z57.938° ENE
7 mins2025-07-02 08:26:27.962Z306.094° NW2025-07-02 08:29:27.962Z9.389° NNE30.297°2025-07-02 08:33:27.962Z64.748° ENE
8 mins2025-07-02 10:09:27.962Z305.384° NW2025-07-02 10:13:27.962Z26.772° NE38.34°2025-07-02 10:17:27.962Z93.493° ESE
8 mins2025-07-02 11:53:27.962Z284.459° WNW2025-07-02 11:56:27.962Z232.47° WSW36.589°2025-07-02 12:01:27.962Z143.124° SSE
|